Details From USSS - Koltsovo
To UWKD - Kazan
Flight Number -
Tags Generated
Created
Modified
Stats Distance 391 nm / 723 km
Max Altitude 0 ft / 0 m
Waypoints 3
Social Downloads 6
Likes 0
Share VATSIM

Download

Looking for another format? Having issues loading an existing format? Contact us
Advertisement - Login to hide

Notes

Generated

Route

USSS GAMSA UWKD

ID Type Via Altitude Latitude Longitude Leg Dist Tot Dist Heading (true) Name
O USSS APT - 0 ft / 0 m 56.74481˚ 60.78140˚ - 0 nm - -
GAMSA FIX - 0 ft / 0 m 55.65000˚ 49.90000˚ 369 nm 369 nm 264° / 255° -
O UWKD APT - 0 ft / 0 m 55.61063˚ 49.26681˚ 21 nm 390 nm 264° / 263° -

Altitude Profile

Advertisement - Login to hide

Weather


0- 5 10 15 20 25 30 35+ Temperature / ° C

Clouds and Precipitation
Forecast for 2018-05-23 00:00 UTC. Updated 24 minutes ago

Ground ~20,000 ft ~40,000 ft Winds

USSS

Details ICAO USSS (SVX)
Name KOLTSOVO
Region Russia
Timezone Asia/Yekaterinburg (UTC+5.0)
Stats Elevation 764 ft / 233 m (AMSL)
Location 56.743108° 60.802727°
Runways 2
Magnetic Variation 14.900° E

METAR

USSS 222330Z 33002MPS 280V350 CAVOK 05/M05 Q1026 R26R/010060 NOSIG RMK QFE749/0998

Decode

TAF

TAF USSS 221956Z 2221/2321 32005MPS 9999 SCT030 BECMG 2313/2315 27003MPS

Decode

Departure Runways

ID Width Length Bearing (true) Bearing (mag) Surface Threshold Offset Overrun Length
08L 148 ft / 45 m 8,172 ft / 2,491 m 90.13° 75.23° Asphalt 0 ft / 0 m 230 ft / 70 m
08R 174 ft / 53 m 9,861 ft / 3,006 m 94.09° 79.19° Concrete 246 ft / 75 m 165 ft / 50 m
26L 174 ft / 53 m 9,861 ft / 3,006 m 274.14° 259.24° Concrete 1,066 ft / 325 m 165 ft / 50 m
26R 148 ft / 45 m 8,172 ft / 2,491 m 270.17° 255.27° Asphalt 0 ft / 0 m 220 ft / 67 m

UWKD

Details ICAO UWKD (KZN)
Name KAZAN
Region Russia
Timezone Europe/Moscow (UTC+3.0)
Stats Elevation 411 ft / 125 m (AMSL)
Location 55.606544° 49.279689°
Runways 2
Magnetic Variation 13.333° E

METAR

UWKD 222330Z 26001MPS CAVOK 10/06 Q1028 R29/CLRD70 NOSIG RMK QFE759/1013

Decode

TAF

TAF UWKD 221955Z 2221/2321 24003MPS 9999 SCT040 TX23/2312Z TN08/2302Z BECMG 2306/2308 20005G10MPS

Decode

Destination Runways

ID Width Length Bearing (true) Bearing (mag) Surface Threshold Offset Overrun Length
11L 144 ft / 44 m 12,189 ft / 3,715 m 126.46° 113.13° Concrete 837 ft / 255 m 0 ft / 0 m
11R 148 ft / 45 m 8,174 ft / 2,492 m 124.48° 111.15° Concrete 0 ft / 0 m 180 ft / 55 m
29L 148 ft / 45 m 8,174 ft / 2,492 m 304.51° 291.18° Concrete 0 ft / 0 m 180 ft / 55 m
29R 144 ft / 44 m 12,189 ft / 3,715 m 306.50° 293.17° Concrete 0 ft / 0 m 160 ft / 49 m

Popular Alternatives